THORAD DELTA 1 DEB, 14474

Orbit data source: Space-Track

THORAD DELTA 1 DEB, 14474 is space debris in SSO originally from a launch on Fri, 15 Nov 1974 UTC launched from the Air Force Western Test Range (AFWTR). Debris objects in space refer to the collection of defunct objects orbiting the Earth. Examples of debris include non-operational satellites, rocket bodies, and fragments generated from explosions, collisions, or faulty payload assembly.

Loading next visibility...
Identifier
14474, 1974-089EQ
Orbit
SSO
Country
Flag of USUS
Related business
Manufacturer
Unknown
Mission
Spacecraft
Bus & Motor
Unknown
Mass
Unknown
Launch date (UTC)
1974-11-15 (52 years ago)
Launch vehicle
Unknown
Launch site
Air Force Western Test Range (AFWTR)
Object type
Payload
Rocket body
Debris
Shape & HBR
Unknown shape, 0.2 m
Radar Cross Section
Medium (>0.1 m² and <1 m²)

Expand to show TLE details & history
Last TLE update: 18 hours ago

TLE from 18 hours ago
0 THORAD DELTA 1 DEB
1 14474U 74089EQ  26208.18649784  .00000175  00000-0  20688-2 0  9992
2 14474 100.6877  92.5139 0288566 356.0402 157.9017 12.08315406925270
Epoch: 2026-07-27T04:28Z
TLE epoch observation values (Epoch: 2026-07-27T04:28:33.413Z)
Latitude
24.41806°
Longitude
-94.6067°
Altitude
1,861.914 km
Speed
6.864 km/s
True Right ascension
18h 29m 37s
True Declination
24° 18' 22"
Sunlit
Object was in daylight at epoch
Visualization orbit readout
Latitude
Unknown
Longitude
Unknown
Altitude
Unknown
Speed
Unknown
Apparent Right ascension
Unknown
Apparent Declination
Unknown
Sunlit
N/A
Visualization observer readout
Local Sidereal Time
11:24:28
Azimuth
Unknown
Elevation
Unknown
Doppler factor
Unknown
Orbital elements
Apogee altitude
1,872.801 km
Perigee altitude
1,409.969 km
Semi-major axis
8,019.522 km
Eccentricity
0.02886
Inclination
100.6877°
RAAN
92.5139°
Arg. of periapsis
356.0402°
True anomaly
159.10531°
Mean anomaly
157.9017°
Eccentric anomaly
158.50746°
Mean motion
3.02218 °/min
Orbital period
119.12 mins
BSTAR
0.0020688
Loading maneuver chart data...
Computing Atmospheric mass density...

Documentation

Showing up to 5 results
|